GW6589 Weather Reports


time (UTC)temp
C
wind
direction
speed
KPH
gust
KPH
rain 1hr
cm
rain 24hr
cm
rain mn
cm
humidity
%
barometer
mb
20260906102339 20 97 1.6 4.8 0.00 0.00 0.10 99 1014.6
20260906101839 20 107 3.2 4.8 0.00 0.00 0.10 99 1014.6
20260906101339 20 32 4.8 4.8 0.00 0.00 0.10 99 1014.6
20260906100839 20 97 3.2 4.8 0.00 0.00 0.10 99 1014.2
20260906100339 20 15 3.2 4.8 0.00 0.00 0.10 99 1014.2
20260906095840 21 110 3.2 6.4 0.00 0.00 0.10 99 1014.6
20260906095340 20 342 0.0 4.8 0.00 0.00 0.10 99 1014.6
20260906094839 20 154 0.0 4.8 0.00 0.00 0.10 99 1014.6
20260906094340 20 85 0.0 4.8 0.00 0.00 0.10 99 1013.9
20260906093839 20 140 3.2 4.8 0.00 0.00 0.10 99 1013.9
20260906093339 20 74 3.2 6.4 0.00 0.00 0.10 99 1013.9
20260906092840 21 24 4.8 4.8 0.00 0.00 0.10 99 1013.9
20260906092339 21 241 3.2 4.8 0.00 0.00 0.10 99 1014.2
20260906091839 21 309 0.0 4.8 0.00 0.00 0.10 99 1014.2
20260906091339 21 113 1.6 4.8 0.00 0.00 0.10 99 1013.9
20260906090840 21 268 0.0 4.8 0.00 0.00 0.10 99 1013.9
20260906090339 21 300 0.0 3.2 0.00 0.00 0.10 99 1013.9
20260906085839 21 80 4.8 6.4 0.00 0.00 0.10 99 1014.2
20260906085339 21 297 3.2 3.2 0.00 0.00 0.10 99 1014.2
20260906084839 21 69 0.0 4.8 0.00 0.00 0.10 99 1013.9
20260906084339 21 315 3.2 4.8 0.00 0.00 0.10 99 1013.9
20260906083839 21 117 1.6 4.8 0.00 0.00 0.10 99 1014.2
20260906083340 20 28 0.0 4.8 0.05 0.00 0.10 99 1014.2
20260906082839 20 77 3.2 4.8 0.05 0.00 0.10 99 1014.2
20260906082340 20 96 1.6 4.8 0.00 0.00 0.10 99 1013.9
20260906081840 20 67 3.2 4.8 0.00 0.00 0.10 99 1013.9
20260906081339 20 75 3.2 6.4 0.00 0.00 0.10 99 1014.2
20260906080840 20 131 1.6 6.4 0.00 0.00 0.10 99 1014.2
20260906080339 20 211 4.8 4.8 0.00 0.00 0.10 99 1014.2
20260906075839 21 25 3.2 4.8 0.00 0.00 0.10 99 1013.9
20260906075339 21 330 0.0 4.8 0.00 0.00 0.10 99 1014.2
20260906074839 21 62 3.2 8.0 0.00 0.00 0.10 99 1014.2
20260906074340 21 143 0.0 4.8 0.00 0.00 0.10 99 1014.2
20260906073839 21 95 1.6 4.8 0.00 0.00 0.10 99 1014.2
20260906073340 21 192 4.8 6.4 0.00 0.00 0.10 99 1014.2
20260906072840 21 62 4.8 6.4 0.05 0.00 0.10 99 1014.2
20260906072340 21 56 3.2 4.8 0.05 0.00 0.10 99 1013.9
20260906071842 21 44 1.6 4.8 0.05 0.00 0.10 99 1013.9
20260906071342 21 360 3.2 8.0 0.00 0.00 0.10 99 1013.9
20260906070845 21 188 1.6 6.4 0.00 0.00 0.10 99 1014.2
20260906070341 21 175 1.6 6.4 0.00 0.00 0.10 99 1014.6
20260906065844 21 100 1.6 4.8 0.00 0.00 0.10 99 1014.6
20260906065340 21 328 4.8 6.4 0.00 0.00 0.10 99 1014.6
20260906064840 21 18 8.0 9.7 0.05 0.00 0.10 99 1014.6
20260906064339 21 155 0.0 4.8 0.13 0.00 0.10 99 1014.2
20260906063839 21 36 3.2 9.7 0.05 0.00 0.08 99 1013.9
20260906063340 21 89 3.2 8.0 0.00 0.00 0.08 98 1013.9
20260906062840 21 251 4.8 6.4 0.05 0.00 0.08 98 1014.2
20260906062339 21 273 3.2 8.0 0.13 0.00 0.08 98 1014.6
20260906061839 21 127 0.0 8.0 0.18 0.00 0.05 99 1014.6
20260906061339 21 341 4.8 9.7 0.18 0.00 0.05 98 1014.6
20260906060840 21 69 3.2 6.4 0.13 0.00 0.03 98 1014.9
20260906060340 21 44 4.8 6.4 0.13 0.00 0.03 98 1014.6
20260906055839 21 142 0.0 6.4 0.05 0.00 0.00 98 1014.6
20260906055340 21 178 3.2 9.7 0.00 0.00 0.00 98 1014.6
20260906054839 21 53 4.8 9.7 0.00 0.00 0.00 98 1014.6
20260906054339 21 258 0.0 6.4 0.00 0.00 0.00 98 1014.2
20260906053839 21 61 1.6 8.0 0.00 0.00 0.00 99 1014.6
20260906053340 21 32 4.8 8.0 0.00 0.00 0.00 98 1014.6
20260906052839 21 225 1.6 6.4 0.00 0.00 0.00 98 1014.6
20260906052340 21 213 3.2 4.8 0.00 0.00 0.00 98 1014.6
20260906051840 21 89 0.0 1.6 0.00 0.00 0.00 98 1014.6
20260906051340 21 205 0.0 0.0 0.00 0.00 0.00 98 1014.6
20260906050840 21 55 0.0 1.6 0.00 0.00 0.00 98 1014.9
20260906050339 21 224 0.0 1.6 0.00 0.00 0.00 98 1014.6
20260906045840 21 135 0.0 1.6 0.00 0.00 0.71 98 1014.9
20260906045339 21 26 1.6 1.6 0.00 0.00 0.71 98 1014.6
20260906044839 21 92 1.6 1.6 0.00 0.00 0.71 98 1014.2
20260906044339 21 255 0.0 1.6 0.00 0.00 0.71 98 1014.6
20260906043839 21 116 0.0 0.0 0.00 0.00 0.71 98 1014.6
20260906043339 21 100 0.0 1.6 0.00 0.00 0.71 98 1014.6
20260906042839 21 217 0.0 3.2 0.00 0.00 0.71 98 1014.6
20260906042340 21 315 0.0 1.6 0.00 0.00 0.71 98 1014.6
20260906041840 21 89 0.0 1.6 0.00 0.00 0.71 98 1014.2
20260906041339 21 235 0.0 1.6 0.00 0.00 0.71 98 1014.6
20260906040840 21 315 0.0 0.0 0.00 0.00 0.71 97 1014.6
20260906040340 21 93 0.0 1.6 0.00 0.00 0.71 97 1014.6
20260906035839 21 309 0.0 1.6 0.00 0.00 0.71 97 1014.6
20260906035339 21 135 0.0 0.0 0.00 0.00 0.71 97 1014.6
20260906034839 21 55 0.0 0.0 0.00 0.00 0.71 97 1014.6
20260906034339 21 89 0.0 0.0 0.00 0.00 0.71 97 1014.6
20260906033839 21 130 0.0 0.0 0.00 0.00 0.71 97 1014.6
20260906033339 21 32 0.0 0.0 0.00 0.00 0.71 97 1014.6
20260906032839 21 205 0.0 1.6 0.00 0.00 0.71 97 1014.6
20260906032341 21 82 0.0 3.2 0.00 0.00 0.71 97 1014.6
20260906031840 21 85 1.6 1.6 0.00 0.00 0.71 97 1014.6
20260906031339 21 235 0.0 1.6 0.00 0.00 0.71 97 1014.6
20260906030843 21 142 0.0 0.0 0.00 0.00 0.71 97 1014.9
20260906030340 21 55 0.0 1.6 0.00 0.00 0.71 97 1014.2
20260906025839 21 216 0.0 0.0 0.00 0.00 0.71 97 1014.6
20260906025339 21 135 0.0 0.0 0.00 0.00 0.71 97 1014.6
20260906024840 21 174 0.0 0.0 0.00 0.00 0.71 97 1014.9
20260906024339 21 242 0.0 0.0 0.00 0.00 0.71 97 1014.6
20260906023841 21 217 0.0 0.0 0.00 0.00 0.71 97 1014.9
20260906023339 21 62 0.0 0.0 0.00 0.00 0.71 97 1014.6
20260906022839 21 135 0.0 1.6 0.00 0.00 0.71 97 1014.9
20260906022339 21 269 0.0 0.0 0.00 0.00 0.71 97 1014.9
20260906021839 21 154 0.0 0.0 0.00 0.00 0.71 96 1015.2
20260906021339 21 46 0.0 0.0 0.00 0.00 0.71 96 1014.6
20260906020839 21 117 0.0 0.0 0.00 0.00 0.71 96 1014.6
20260906020339 21 224 0.0 0.0 0.00 0.00 0.71 96 1014.6
20260906015840 21 224 0.0 0.0 0.00 0.00 0.71 96 1014.6
20260906015339 21 50 0.0 0.0 0.00 0.00 0.71 96 1014.6
20260906014839 21 62 1.6 1.6 0.00 0.00 0.71 96 1014.2
20260906014340 21 211 0.0 1.6 0.00 0.00 0.71 96 1014.6
20260906013839 21 135 0.0 0.0 0.00 0.00 0.71 96 1014.6
20260906013339 22 54 0.0 1.6 0.00 0.00 0.71 96 1014.2
20260906012839 22 195 0.0 0.0 0.00 0.00 0.71 96 1014.2
20260906012339 22 157 0.0 0.0 0.00 0.00 0.71 96 1014.6
20260906011840 22 325 0.0 0.0 0.00 0.00 0.71 95 1014.2
20260906011339 22 300 0.0 0.0 0.00 0.00 0.71 95 1014.2
20260906010840 22 195 0.0 0.0 0.00 0.00 0.71 95 1014.2
20260906010339 22 269 0.0 0.0 0.00 0.00 0.71 95 1014.2
20260906005840 22 44 0.0 1.6 0.00 0.00 0.71 95 1014.2
20260906005340 22 226 0.0 0.0 0.00 0.00 0.71 95 1013.9
20260906004839 22 128 0.0 0.0 0.00 0.00 0.71 95 1013.9
20260906004339 22 129 0.0 1.6 0.00 0.00 0.71 95 1013.9
20260906003839 22 54 1.6 1.6 0.00 0.00 0.71 95 1013.9
20260906000841 23 38 0.0 1.6 0.00 0.00 0.71 94 1013.9
20260906000341 23 51 1.6 1.6 0.00 0.00 0.71 94 1013.9
20260905235839 23 269 0.0 0.0 0.00 0.00 0.71 94 1013.9
20260905235340 23 304 0.0 1.6 0.00 0.00 0.71 94 1013.9
20260905234839 23 224 0.0 0.0 0.00 0.00 0.71 93 1014.2
20260905234339 23 89 0.0 0.0 0.00 0.00 0.71 93 1013.9
20260905233839 23 269 0.0 1.6 0.00 0.00 0.71 93 1014.2
20260905233339 23 66 0.0 0.0 0.00 0.00 0.71 93 1013.9
20260905232839 23 81 0.0 0.0 0.00 0.00 0.71 94 1013.9
20260905232339 23 124 0.0 0.0 0.00 0.00 0.71 94 1013.9
20260905231839 23 304 0.0 0.0 0.00 0.00 0.71 93 1013.9
20260905231340 24 297 0.0 1.6 0.00 0.00 0.71 92 1013.9
20260905230839 24 113 0.0 1.6 0.00 0.00 0.71 90 1013.9
20260905230339 24 315 0.0 0.0 0.00 0.00 0.71 90 1013.9
20260905225840 24 269 0.0 3.2 0.00 0.00 0.71 90 1013.9
20260905225339 24 240 1.6 1.6 0.00 0.00 0.71 90 1013.9
20260905224839 24 269 0.0 0.0 0.00 0.00 0.71 89 1013.9
20260905224339 25 269 0.0 0.0 0.00 0.00 0.71 89 1013.5
20260905223839 25 224 0.0 0.0 0.00 0.00 0.71 88 1013.9
20260905223339 25 135 0.0 1.6 0.00 0.00 0.71 89 1013.9
20260905222839 25 217 1.6 1.6 0.00 0.00 0.71 89 1013.5
20260905222340 25 254 4.8 4.8 0.00 0.00 0.71 90 1013.9
20260905221839 25 262 3.2 4.8 0.00 0.00 0.71 89 1013.5
20260905221340 25 264 3.2 4.8 0.00 0.00 0.71 88 1013.9
20260905220840 25 263 3.2 6.4 0.00 0.00 0.71 86 1013.9
20260905220339 26 238 4.8 6.4 0.00 0.00 0.71 86 1013.9
20260905215839 26 248 4.8 6.4 0.00 0.00 0.71 85 1013.5
20260905215339 26 248 6.4 8.0 0.00 0.00 0.71 86 1013.9
20260905214839 26 266 3.2 6.4 0.00 0.00 0.71 86 1013.9
20260905214340 26 265 3.2 6.4 0.00 0.00 0.71 85 1013.5
20260905213839 26 245 4.8 8.0 0.00 0.00 0.71 84 1013.5
20260905213340 26 262 4.8 6.4 0.00 0.00 0.71 84 1013.5
20260905212839 26 253 6.4 8.0 0.00 0.00 0.71 86 1013.5
20260905212343 26 276 4.8 6.4 0.00 0.00 0.71 84 1013.5
20260905211839 26 277 4.8 4.8 0.00 0.00 0.71 85 1013.5
20260905211339 26 253 6.4 8.0 0.00 0.00 0.71 84 1013.5
20260905210839 26 255 6.4 8.0 0.00 0.00 0.71 84 1013.2
20260905210339 27 252 4.8 8.0 0.00 0.00 0.71 83 1012.9
20260905205839 27 255 4.8 8.0 0.00 0.00 0.71 84 1013.2
20260905205340 27 265 4.8 8.0 0.00 0.00 0.71 85 1013.2
20260905204839 27 281 4.8 9.7 0.00 0.00 0.71 82 1012.9
20260905204339 27 244 6.4 8.0 0.00 0.00 0.71 81 1012.9
20260905203839 27 256 6.4 9.7 0.00 0.00 0.71 80 1012.9
20260905203339 27 260 3.2 4.8 0.00 0.00 0.71 80 1012.9
20260905202839 27 258 3.2 4.8 0.00 0.00 0.71 80 1012.9
20260905202339 27 253 8.0 8.0 0.00 0.00 0.71 79 1012.9
20260905201839 28 252 4.8 8.0 0.00 0.00 0.71 79 1013.2
20260905201339 28 243 8.0 8.0 0.00 0.00 0.71 80 1013.2
20260905200840 28 257 6.4 8.0 0.00 0.00 0.71 79 1013.2
20260905200340 28 261 4.8 8.0 0.00 0.00 0.71 76 1013.2
20260905195839 28 243 8.0 9.7 0.00 0.00 0.71 77 1013.2
20260905195339 28 240 8.0 8.0 0.00 0.00 0.71 76 1013.2
20260905194839 28 240 9.7 11.3 0.00 0.00 0.71 76 1013.2
20260905194340 29 253 6.4 8.0 0.00 0.00 0.71 71 1013.5
20260905193840 30 245 6.4 9.7 0.00 0.00 0.71 69 1013.2
20260905193339 30 253 4.8 6.4 0.00 0.00 0.71 70 1013.5
20260905192839 29 163 1.6 9.7 0.00 0.00 0.71 72 1013.5
20260905192341 30 250 8.0 8.0 0.00 0.00 0.71 70 1013.5
20260905191840 30 242 4.8 6.4 0.00 0.00 0.71 67 1013.9
20260905191339 30 259 4.8 8.0 0.00 0.00 0.71 67 1013.9
20260905190840 30 263 3.2 6.4 0.00 0.00 0.71 68 1014.2
20260905190340 29 265 4.8 6.4 0.00 0.00 0.71 66 1013.9
20260905185839 29 267 6.4 8.0 0.00 0.00 0.71 69 1014.2
20260905185339 30 248 4.8 6.4 0.00 0.00 0.71 71 1014.2
20260905184839 28 259 4.8 4.8 0.00 0.00 0.71 76 1014.6
20260905184339 28 154 0.0 4.8 0.00 0.00 0.71 76 1014.6
20260905183839 27 322 0.0 3.2 0.00 0.00 0.71 78 1014.9
20260905183340 27 180 0.0 1.6 0.00 0.00 0.71 82 1014.9
20260905182840 27 212 0.0 1.6 0.00 0.00 0.71 81 1014.6
20260905182339 27 269 0.0 4.8 0.00 0.00 0.71 80 1014.9
20260905181839 26 251 3.2 4.8 0.00 0.00 0.71 84 1015.2
20260905181339 26 131 1.6 3.2 0.00 0.00 0.71 84 1015.2
20260905180839 27 186 0.0 3.2 0.00 0.00 0.71 81 1015.2
20260905180339 27 183 0.0 4.8 0.00 0.00 0.71 77 1015.2
20260905175840 27 293 1.6 4.8 0.00 0.00 0.71 77 1015.2
20260905175340 27 257 3.2 4.8 0.00 0.00 0.71 81 1015.2
20260905174839 26 293 3.2 4.8 0.00 0.00 0.71 82 1015.6
20260905174339 26 240 0.0 3.2 0.00 0.00 0.71 83 1015.2
20260905173840 25 199 1.6 3.2 0.00 0.00 0.71 92 1015.6
20260905173339 25 117 3.2 4.8 0.00 0.00 0.71 91 1015.6
20260905172839 24 129 3.2 6.4 0.00 0.00 0.71 90 1015.6
20260905172340 24 101 6.4 6.4 0.00 0.00 0.71 92 1015.6
20260905171839 23 62 0.0 4.8 0.00 0.00 0.71 93 1015.6
20260905171339 23 114 3.2 8.0 0.00 0.00 0.71 96 1015.6
20260905170840 23 134 3.2 4.8 0.00 0.00 0.71 97 1015.9
20260905170340 23 114 3.2 6.4 0.00 0.00 0.71 97 1015.9
20260905165839 23 81 0.0 4.8 0.00 0.00 0.71 98 1016.3
20260905165339 23 164 0.0 3.2 0.00 0.00 0.71 98 1015.9
20260905164839 23 202 1.6 3.2 0.00 0.00 0.71 98 1016.3
20260905164339 23 317 3.2 3.2 0.00 0.00 0.71 98 1016.3
20260905163839 23 279 0.0 4.8 0.00 0.00 0.71 98 1016.3
20260905163340 23 262 1.6 6.4 0.00 0.00 0.71 98 1016.6
20260905162840 22 267 4.8 4.8 0.00 0.00 0.71 98 1016.6
20260905162339 22 325 0.0 3.2 0.00 0.00 0.71 99 1016.9
20260905161839 22 304 0.0 4.8 0.00 0.00 0.71 99 1017.3
20260905161339 22 251 3.2 4.8 0.00 0.00 0.71 98 1017.6
20260905160840 22 322 0.0 3.2 0.00 0.00 0.71 98 1017.6
20260905160339 22 247 3.2 4.8 0.00 0.00 0.71 98 1017.6
20260905155840 22 273 0.0 3.2 0.00 0.00 0.71 98 1017.6
20260905155339 22 264 0.0 3.2 0.05 0.00 0.71 98 1017.9
20260905154839 22 294 1.6 4.8 0.05 0.00 0.71 98 1017.9
20260905154340 22 266 3.2 4.8 0.05 0.00 0.71 98 1017.6
20260905153839 22 230 0.0 4.8 0.05 0.00 0.71 98 1017.6
20260905153339 22 238 1.6 4.8 0.05 0.00 0.69 98 1017.9
20260905152840 22 245 3.2 6.4 0.13 0.00 0.69 98 1017.9
20260905152339 22 243 3.2 4.8 0.18 0.00 0.69 98 1018.3
20260905151839 22 255 3.2 6.4 0.13 0.00 0.66 98 1018.3
20260905151339 22 252 3.2 4.8 0.13 0.00 0.66 98 1018.6
20260905150842 22 269 0.0 3.2 0.18 0.00 0.66 98 1017.9
20260905150340 22 105 3.2 4.8 0.05 0.00 0.64 98 1018.3
20260905145840 22 142 3.2 4.8 0.00 0.00 0.61 98 1018.3
20260905145339 22 274 0.0 3.2 0.05 0.00 0.61 98 1017.9
20260905144840 22 269 1.6 4.8 0.05 0.00 0.61 98 1018.3
20260905144341 22 304 0.0 3.2 0.00 0.00 0.61 98 1018.3
20260905143839 22 260 3.2 4.8 0.05 0.00 0.61 97 1018.6
20260905143340 22 136 0.0 4.8 0.30 0.00 0.61 97 1018.3
20260905142839 22 7 1.6 6.4 1.14 0.00 0.61 97 1018.3
20260905142339 23 52 3.2 8.0 2.77 0.00 0.53 97 1017.9
20260905141840 23 107 6.4 14.5 2.29 0.00 0.38 94 1017.9
20260905141339 24 274 1.6 6.4 0.48 0.00 0.08 93 1016.9
20260905140839 24 46 1.6 4.8 0.00 0.00 0.00 95 1016.3
20260905140339 23 156 1.6 4.8 0.00 0.00 0.00 97 1015.9
20260905135839 23 80 1.6 4.8 0.00 0.00 0.00 98 1015.6
20260905135340 23 242 0.0 3.2 0.00 0.00 0.00 99 1015.6
20260905134839 23 116 1.6 4.8 0.00 0.00 0.00 99 1015.9
20260905134340 22 87 0.0 3.2 0.00 0.00 0.00 99 1015.9
20260905133839 22 109 0.0 1.6 0.00 0.00 0.00 98 1016.3
20260905133340 22 342 0.0 3.2 0.00 0.00 0.00 99 1016.3
20260905132840 22 240 0.0 3.2 0.00 0.00 0.00 98 1016.6
20260905132339 22 195 0.0 1.6 0.00 0.00 0.00 98 1016.3
20260905131840 22 62 3.2 3.2 0.00 0.00 0.00 98 1016.3
20260905131339 21 178 1.6 3.2 0.00 0.00 0.00 98 1016.3
20260905130841 21 263 0.0 3.2 0.00 0.00 0.00 98 1016.3
20260905130339 21 340 0.0 3.2 0.00 0.00 0.00 98 1016.3
20260905125839 21 233 0.0 3.2 0.00 0.00 0.00 98 1016.6
20260905125340 20 79 0.0 4.8 0.00 0.00 0.00 99 1016.9
20260905124839 20 60 1.6 4.8 0.00 0.00 0.00 98 1016.6
20260905124339 20 132 0.0 3.2 0.00 0.00 0.00 98 1016.6
20260905123839 20 357 0.0 3.2 0.00 0.00 0.00 99 1016.6
20260905123339 20 89 0.0 3.2 0.00 0.00 0.00 98 1016.3
20260905122840 20 293 0.0 4.8 0.00 0.00 0.00 98 1016.6
20260905122340 20 267 3.2 4.8 0.00 0.00 0.00 99 1016.6
20260905121839 20 340 0.0 3.2 0.00 0.00 0.00 98 1016.6
20260905121343 20 251 1.6 4.8 0.00 0.00 0.00 98 1016.3
20260905120840 20 360 0.0 3.2 0.00 0.00 0.00 98 1016.6
20260905120340 20 257 0.0 3.2 0.00 0.00 0.00 98 1016.6
20260905115839 19 227 3.2 3.2 0.00 0.00 0.00 99 1016.6
20260905115340 19 63 1.6 4.8 0.00 0.00 0.00 98 1016.3
20260905114839 19 122 0.0 3.2 0.00 0.00 0.00 98 1016.3
20260905114340 19 122 0.0 4.8 0.00 0.00 0.00 98 1016.3
20260905113840 19 258 1.6 3.2 0.00 0.00 0.00 98 1016.3
20260905113339 19 24 0.0 4.8 0.00 0.00 0.00 98 1016.3
20260905112902 19 257 1.6 4.8 0.00 0.00 0.00 98 1016.3
20260905112340 19 119 3.2 3.2 0.00 0.00 0.00 98 1015.9
20260905111840 19 181 0.0 3.2 0.00 0.00 0.00 98 1015.9
20260905111339 19 37 0.0 4.8 0.00 0.00 0.00 98 1015.6
20260905110839 19 59 1.6 4.8 0.00 0.00 0.00 98 1015.9
20260905110340 19 57 3.2 3.2 0.00 0.00 0.00 98 1015.6
20260905105839 19 143 3.2 4.8 0.00 0.00 0.00 98 1015.6
20260905105340 19 300 1.6 4.8 0.00 0.00 0.00 98 1015.2
20260905104839 19 285 1.6 4.8 0.00 0.00 0.00 98 1015.2
20260905104339 19 300 0.0 4.8 0.00 0.00 0.00 98 1015.6
20260905103839 19 346 3.2 4.8 0.00 0.00 0.00 98 1015.6
20260905103339 19 225 1.6 4.8 0.00 0.00 0.00 98 1015.6
20260905102841 19 77 3.2 6.4 0.00 0.00 0.00 98 1015.6